sat.trackr.live / text

‹ back to catalog

STARLINK-35989

NORAD 66819 · 2025-278AE

PAYLOAD ACTIVE UNKNOWN

§ Identity

Operator
Country
US
Launch date
2025-12-01
Launch site
AFETR
Launch vehicle
Mass (kg)
RCS (m²)

Purposes: comms

External: N2YO · Heavens-Above · Gunter

§ Orbital elements

Epoch: 2026-09-20T21:40:51.313152Z

Period
94.27 min
Inclination
43.0026°
Eccentricity
0.0001118
Mean motion
15.27581174 rev/d
Perigee alt
482.3 km
Apogee alt
483.8 km
Semi-major
6,861.2 km
B*
3.0642e-4
RAAN
91.9715°
Arg perigee
270.0204°
Mean anomaly
90.0519°
Rev number
4,506

§ Raw data

STARLINK-359891 66819U 25278AE  26263.90337168  .00008180  00000+0  30642-3 0  99942 66819  43.0026  91.9715 0001118 270.0204  90.0519 15.27581174 45065

JSON: /api/v1/satellites/66819 · /tle

For live sub-satellite position, see the globe view (requires WebGL).

§ Visibility from observer

Set your observer location to see the next 7 days of passes ≥ 10°. The values pass through the URL so the page stays shareable.

No JS? Fill the form by hand. The geolocation button needs JavaScript.